PY2FGD-13 Weather Reports


time (UTC)temp
F
wind
direction
speed
knots
gust
knots
rain 1hr
in
rain 24hr
in
rain mn
in
humidity
%
barometer
mb
20260504081746 70 0.0 0.0 0.00 0.00 0.00 71 1018.6
20260504080746 70 0.0 0.0 0.00 0.00 0.00 72 1018.4
20260504050746 71 0.0 0.0 0.00 0.00 0.00 76 1019.5
20260504045745 71 0.0 0.0 0.00 0.00 0.00 76 1019.5
20260504044746 71 0.0 0.0 0.00 0.00 0.00 76 1019.8
20260504043746 71 0.0 0.0 0.00 0.00 0.00 76 1020.1
20260504042746 71 0.0 0.0 0.00 0.00 0.00 77 1019.9
20260504041745 71 0.0 0.0 0.00 0.00 0.00 77 1019.9
20260504040745 71 0.0 0.0 0.00 0.00 0.00 77 1019.8
20260504035745 71 0.0 0.0 0.00 0.00 0.00 77 1020.0
20260504034745 71 0.0 0.0 0.00 0.00 0.00 78 1019.9
20260504033746 71 0.0 0.0 0.00 0.00 0.00 78 1019.7
20260504032746 71 0.0 0.0 0.00 0.00 0.00 78 1019.9
20260504031801 71 0.0 0.0 0.00 0.00 0.00 79 1020.0
20260504030745 71 0.0 0.0 0.00 0.00 0.00 80 1020.2
20260504025746 71 0.0 0.0 0.00 0.00 0.00 80 1020.2
20260504024746 71 0.0 0.0 0.00 0.00 0.00 79 1020.3
20260504023745 71 0.0 0.0 0.00 0.00 0.00 79 1020.3
20260504022746 71 0.0 0.0 0.00 0.00 0.00 78 1020.4
20260504021746 71 0.0 0.0 0.00 0.00 0.00 77 1020.3
20260504020745 71 0.0 0.0 0.00 0.00 0.00 71 1020.3
20260504015745 65 0.0 0.0 0.00 0.00 0.00 75 1021.2
20260504014746 70 0.0 0.0 0.00 0.00 0.00 67 1020.4
20260504013745 71 0.0 0.0 0.00 0.00 0.00 72 1020.3
20260504012745 71 0.0 0.0 0.00 0.00 0.00 72 1020.4
20260504011746 70 0.0 0.0 0.00 0.00 0.00 73 1020.6
20260504010745 71 0.0 0.0 0.00 0.00 0.00 70 1020.6
20260504005745 71 0.0 0.0 0.00 0.00 0.00 71 1020.6
20260504004745 71 0.0 0.0 0.00 0.00 0.00 71 1020.6
20260504003746 71 0.0 0.0 0.00 0.00 0.00 72 1020.5
20260504002745 71 0.0 0.0 0.00 0.00 0.00 72 1020.4
20260504001746 71 0.0 0.0 0.00 0.00 0.00 73 1020.5
20260504000745 71 0.0 0.0 0.00 0.00 0.00 74 1020.6
20260503235745 72 0.0 0.0 0.00 0.00 0.00 71 1020.5
20260503234745 72 0.0 0.0 0.00 0.00 0.00 69 1020.3
20260503233801 72 0.0 0.0 0.00 0.00 0.00 69 1020.6
20260503232745 72 0.0 0.0 0.00 0.00 0.00 68 1020.3
20260503231746 72 0.0 0.0 0.00 0.00 0.00 69 1020.3
20260503230745 72 0.0 0.0 0.00 0.00 0.00 69 1020.2
20260503225745 71 0.0 0.0 0.00 0.00 0.00 70 1020.2
20260503224745 67 0.0 0.0 0.00 0.00 0.00 73 1020.7
20260503223801 71 0.0 0.0 0.00 0.00 0.00 70 1020.0
20260503222746 71 0.0 0.0 0.00 0.00 0.00 70 1020.0
20260503221745 71 0.0 0.0 0.00 0.00 0.00 70 1020.1
20260503220745 71 0.0 0.0 0.00 0.00 0.00 70 1020.0
20260503215746 71 0.0 0.0 0.00 0.00 0.00 71 1019.8
20260503214801 72 0.0 0.0 0.00 0.00 0.00 70 1019.6
20260503213745 71 0.0 0.0 0.00 0.00 0.00 69 1019.7
20260503212745 71 0.0 0.0 0.00 0.00 0.00 69 1019.7
20260503211745 71 0.0 0.0 0.00 0.00 0.00 69 1019.8
20260503210745 71 0.0 0.0 0.00 0.00 0.00 69 1019.6
20260503205745 71 0.0 0.0 0.00 0.00 0.00 69 1019.6
20260503204745 71 0.0 0.0 0.00 0.00 0.00 69 1019.5
20260503203745 71 0.0 0.0 0.00 0.00 0.00 68 1019.5
20260503202745 71 0.0 0.0 0.00 0.00 0.00 68 1019.5
20260503201745 71 0.0 0.0 0.00 0.00 0.00 68 1019.5
20260503200801 68 0.0 0.0 0.00 0.00 0.00 72 1019.8
20260503195745 69 0.0 0.0 0.00 0.00 0.00 71 1019.7
20260503194745 69 0.0 0.0 0.00 0.00 0.00 72 1019.8
20260503193746 69 0.0 0.0 0.00 0.00 0.00 72 1019.7
20260503192745 69 0.0 0.0 0.00 0.00 0.00 71 1019.7
20260503191745 69 0.0 0.0 0.00 0.00 0.00 71 1019.7
20260503190802 69 0.0 0.0 0.00 0.00 0.00 70 1019.6
20260503185745 70 0.0 0.0 0.00 0.00 0.00 69 1019.6
20260503184745 69 0.0 0.0 0.00 0.00 0.00 69 1019.6
20260503183745 70 0.0 0.0 0.00 0.00 0.00 68 1019.6
20260503182745 71 0.0 0.0 0.00 0.00 0.00 67 1019.5
20260503181745 70 0.0 0.0 0.00 0.00 0.00 68 1019.5
20260503180746 70 0.0 0.0 0.00 0.00 0.00 68 1019.3
20260503175745 70 0.0 0.0 0.00 0.00 0.00 69 1019.3
20260503174745 71 0.0 0.0 0.00 0.00 0.00 68 1019.3
20260503173745 71 0.0 0.0 0.00 0.00 0.00 69 1019.4
20260503172744 70 0.0 0.0 0.00 0.00 0.00 70 1019.7
20260503171744 70 0.0 0.0 0.00 0.00 0.00 69 1020.0
20260503170745 70 0.0 0.0 0.00 0.00 0.00 68 1019.9
20260503150744 71 0.0 0.0 0.00 0.00 0.00 69 1021.2
20260503130802 70 0.0 0.0 0.00 0.00 0.00 79 1021.5